EDT,Max TemperatureF,Mean TemperatureF,Min TemperatureF,Max Dew PointF,MeanDew PointF,Min DewpointF,Max Humidity, Mean Humidity, Min Humidity, Max Sea Level PressureIn, Mean Sea Level PressureIn, Min Sea Level PressureIn, Max VisibilityMiles, Mean VisibilityMiles, Min VisibilityMiles, Max Wind SpeedMPH, Mean Wind SpeedMPH, Max Gust SpeedMPH,PrecipitationIn, CloudCover, Events, WindDirDegrees
2013-4-1,44,36,28,45,29,12,100,72,33,29.98,29.83,29.65,10,10,2,17,10,29,0.00,,,291
2013-4-2,35,30,24,21,16,10,86,57,41,30.16,30.07,29.98,10,10,10,16,8,30,0.00,,,299
2013-4-3,35,28,21,27,15,9,86,59,35,30.38,30.26,30.13,10,10,7,18,4,29,0.00,,,315
2013-4-4,51,33,15,19,14,7,100,54,16,30.36,30.18,29.96,10,10,10,12,2,16,0.00,,,155
2013-4-5,53,40,26,30,22,16,80,52,30,30.14,29.98,29.92,10,10,10,20,4,29,0.00,,,323
2013-4-6,55,38,21,25,18,10,100,51,19,30.28,30.18,30.07,10,10,10,12,3,20,0.00,,,153
2013-4-7,69,58,48,48,36,19,72,44,32,30.06,29.96,29.89,10,10,10,22,12,33,0.00,,,219
2013-4-8,73,57,41,52,46,41,100,65,38,30.07,30.00,29.92,10,10,10,20,3,23,0.00,,,247
2013-4-9,75,66,57,55,52,45,88,59,47,30.12,30.02,29.92,10,10,10,15,8,21,0.00,,,269
2013-4-10,77,68,57,64,58,54,100,76,57,29.98,29.93,29.84,10,10,2,29,6,45,0.53,,,253
2013-4-11,73,62,51,61,57,50,100,88,61,29.91,29.82,29.68,10,10,5,16,5,22,0.02,,,156
2013-4-12,66,54,42,63,51,36,100,85,63,29.85,29.66,29.56,10,9,4,20,10,32,0.45,,,243
2013-4-13,51,44,37,36,34,32,93,72,50,29.99,29.90,29.85,10,10,10,17,9,23,0.00,,,278
2013-4-14,57,44,32,37,32,27,87,58,38,30.15,30.08,30.00,10,10,10,12,6,20,0.00,,,291
2013-4-15,66,60,53,50,45,36,72,60,47,30.16,30.11,30.02,10,10,10,18,8,25,0.00,,,174
2013-4-16,75,65,55,63,56,48,100,79,53,30.24,30.13,30.06,10,9,3,17,10,24,0.57,,,211
2013-4-17,69,60,50,55,53,48,100,82,53,30.27,30.21,30.15,10,9,2,8,2,,0.00,,,105
2013-4-18,75,68,60,63,59,54,94,74,61,30.17,30.01,29.86,10,10,10,18,12,29,0.00,,,168
2013-4-19,71,56,42,63,51,32,100,78,61,29.86,29.71,29.52,10,10,3,24,13,38,0.18,,,217
2013-4-20,44,38,33,36,29,25,100,69,49,30.39,30.09,29.83,10,10,5,28,14,33,0.01,,,292
2013-4-21,51,38,24,27,22,19,100,53,28,30.58,30.50,30.39,10,10,10,12,3,16,0.00,,,95
2013-4-22,57,49,41,32,26,25,61,44,29,30.49,30.41,30.32,10,10,10,15,7,23,0.00,,,139
2013-4-23,68,52,37,41,35,30,81,54,26,30.32,30.17,30.01,10,10,10,13,7,18,0.00,,,140
2013-4-24,71,54,37,59,47,36,100,73,53,30.14,29.91,29.77,10,10,0,18,10,41,0.34,,,235
2013-4-25,55,45,35,41,33,28,100,70,38,30.35,30.24,30.14,10,10,7,16,9,26,0.02,,,274
2013-4-26,57,44,32,41,33,27,100,67,31,30.48,30.41,30.35,10,9,3,8,1,,0.00,,,326
2013-4-27,69,51,33,39,34,30,93,50,23,30.41,30.32,30.21,10,10,10,10,2,17,0.00,,,141
2013-4-28,59,52,44,52,46,39,100,78,48,30.22,30.11,30.02,10,10,5,17,6,26,0.14,,,153
2013-4-29,62,56,51,55,52,48,100,89,72,30.07,30.02,29.98,10,10,4,14,9,22,0.14,,,152
2013-4-30,66,60,53,55,54,52,100,83,64,30.25,30.16,30.07,10,10,10,17,7,24,0.00,,,147